Regional Weather Roundup
Issued by NWS

Home | Current Version | Previous Version | Text Only | Print | Product List | Glossary Off
Versions: 1 2 3 4 5 6 7 8 9 10 11 12 13 14 15 16 17 18 19 20 21 22 23 24 25 26 27 28 29 30 31 32 33 34 35 36 37 38 39 40 41 42 43 44 45 46 47 48 49 50

000
ASUS43 KMKX 271510
RWRWI

WISCONSIN REGIONAL WEATHER ROUNDUP
NATIONAL WEATHER SERVICE MILWAUKEE/SULLIVAN WI
1000 AM CDT FRI MAR 27 2015

NOTE: "FAIR" INDICATES FEW OR NO CLOUDS BELOW 12,000 FEET WITH NO
SIGNIFICANT WEATHER AND/OR OBSTRUCTIONS TO VISIBILITY.

WIZ001-002-006>008-014>016-023>028-271600-
NORTHWEST WISCONSIN

CITY           SKY/WX    TMP DP  RH WIND       PRES   REMARKS
SUPERIOR ARPT  SUNNY     23   6  49 NE3       30.30S
ASHLAND        SUNNY     23  10  57 N12       30.29S WCI  12
HAYWARD        SUNNY     21   7  54 NE9       30.24F WCI  11
SIREN          SUNNY     23   7  52 NE3       30.28R
CUMBERLAND     SUNNY     21   7  53 E5        30.24F WCI  15
RICE LAKE      SUNNY     23   8  53 N6        30.27S WCI  15
CHETEK         SUNNY     23   7  51 CALM      30.25S
LADYSMITH      SUNNY     23  10  56 N3        30.25S
EAU CLAIRE     SUNNY     25   7  46 NE10      30.26S WCI  15
MENOMONIE      SUNNY     24   8  49 N6        30.27S WCI  17
NEW RICHMOND   SUNNY     23   6  48 NE3       30.28R
OSCEOLA        SUNNY     24   9  53 NE3       30.31S
$$

WIZ003>005-009-010-017-018-271600-
NORTH CENTRAL WISCONSIN

CITY           SKY/WX    TMP DP  RH WIND       PRES   REMARKS
MANITOWISH WTR FAIR      16   6  64 NE5       30.19S WCI   9
ARBOR VITAE    MOSUNNY   17   8  67 NE6       30.19S WCI   8
WOODRUFF       MOSUNNY   17   8  67 NE6       30.19S WCI   8
RHINELANDER    SUNNY     15   4  61 NE10      30.19S WCI   2
EAGLE RIVER    SUNNY     15   2  58 N8        30.19R WCI   4
LAND O LAKES   SUNNY     15   4  61 N9        30.20S WCI   3
PHILLIPS       MOSUNNY   19   8  63 NE7       30.20F WCI  10
TOMAHAWK       MOSUNNY   17   7  65 N8        30.21S WCI   6
MEDFORD        PTSUNNY   18   8  64 N7        30.20F WCI   9
MERRILL        MOSUNNY   19   8  63 NE9       30.21S WCI   7
$$

WIZ029-030-035-036-043>047-271600-
CENTRAL WISCONSIN

CITY           SKY/WX    TMP DP  RH WIND       PRES   REMARKS
WAUSAU         PTSUNNY   19   9  65 N7        30.21R WCI  10
MOSINEE        NOT AVBL
MARSHFIELD     MOSUNNY   23   7  50 N9        30.22S WCI  13
STEVENS POINT  MOSUNNY   18   5  58 N12       30.23F WCI   5
WAUPACA        SUNNY     24   4  41 N12G17    30.24R WCI  13
WAUTOMA        MOSUNNY   24   4  42 N12       30.24R WCI  13
WISC RAPIDS    MOSUNNY   23   5  46 N10       30.25S WCI  12
CAMP DOUGLAS   SUNNY     25   7  46 NE8       30.24S WCI  16
$$

WIZ011>013-019>022-031-037>040-048>050-271600-
NORTHEAST WISCONSIN

CITY           SKY/WX    TMP DP  RH WIND       PRES   REMARKS
ANTIGO         SUNNY     15   6  66 N10       30.19R WCI   2
SHAWANO        MOSUNNY   23   8  52 NE12      30.23S WCI  11
OCONTO         MOSUNNY   19   7  58 N8        30.24R WCI   9
STURGEON BAY   CLOUDY    18   9  68 N16G22    30.24R WCI   3
GREEN BAY      PTSUNNY   22   8  55 N13       30.23R WCI  10
MANITOWOC      CLOUDY    21   8  57 N18G24    30.20R WCI   6
APPLETON       PTSUNNY   21   7  53 N12G17    30.22R WCI   9
CLINTONVILLE   SUNNY     21   5  49 N8        30.23S WCI  12
OSHKOSH        MOSUNNY   23   5  46 N16       30.22R WCI  10
$$

WIZ032>034-041-042-053>061-271600-
SOUTHWEST WISCONSIN

CITY           SKY/WX    TMP DP  RH WIND       PRES   REMARKS
LA CROSSE      SUNNY     27  10  49 NE8       30.28R WCI  19
SPARTA         SUNNY     25   8  46 N9        30.26F WCI  16
VIROQUA        SUNNY     23  11  61 NE9       30.22S WCI  13
BOSCOBEL       SUNNY     26   8  46 N10G16    30.26S WCI  16
PRAIRIE DU CHI SUNNY     26   8  47 N7        30.26S WCI  18
PLATTEVILLE    SUNNY     24   9  53 N8        30.22S WCI  15
$$

WIZ056-057-062-063-064-067-068-271600-
SOUTH CENTRAL WISCONSIN

CITY           SKY/WX    TMP DP  RH WIND       PRES   REMARKS
REEDSBURG      SUNNY     23   6  48 NE10G16   30.23S WCI  12
BARABOO/DELLS  SUNNY     23   4  44 N8        30.22S WCI  14
LONE ROCK      MOSUNNY   25   9  50 NE12      30.24F WCI  14
MINERAL POINT  SUNNY     27   7  43 N8        30.21S WCI  18
MADISON        MOSUNNY   25   6  44 N16G25    30.21S WCI  12
MIDDLETON      PTSUNNY   25   8  48 N16       30.22S WCI  13
WATERTOWN      SUNNY     24   4  43 N16G22    30.20R WCI  10
MONROE         SUNNY     23  10  58 N8        30.20R WCI  14
JANESVILLE     MOSUNNY   27   7  43 N13G22    30.20R WCI  16
$$

WIZ051-052-058>065-066-070>072-271600-
SOUTHEAST WISCONSIN

CITY           SKY/WX    TMP DP  RH WIND       PRES   REMARKS
MILWAUKEE      MOSUNNY   23   5  46 N17       30.18R WCI   9
WAUKESHA       MOSUNNY   21   3  45 N10       30.19R WCI  10
MILWAUKEE/TIMM MOSUNNY   23   1  39 N17G23    30.20R WCI   9
RACINE         PTSUNNY   23   8  52 N20       30.19R WCI   8
BURLINGTON     MOSUNNY   23   2  40 N15G25    30.18R WCI  10
KENOSHA        SUNNY     24   5  44 N12G21    30.17S WCI  13
FOND DU LAC    MOSUNNY   24   7  48 N17G23    30.22R WCI  11
SHEBOYGAN      PTSUNNY   23   8  52 N16       30.19R WCI  10
WEST BEND      PTSUNNY   23   5  46 N14       30.18S WCI  11
JUNEAU         MOSUNNY   22   3  44 N17       30.21R WCI   7
$$

LSZ147-162-271600-
LAKE SUPERIOR

STATION/POSITION TIME  TEMP    WIND        PRES    WAVE
                       AIR SEA DIR/SP/G            HT/PER
                 (UTC) (F)     (DEG/KT/KT) (MB)    (FT/S)
DEVILS ISLAND    1500   19      50/  7/  9 1027.6R
PORT WING        1440   23      20/  7/ 11 1026.1R
$$

LMZ867-665-643>646-271600-
LAKE MICHIGAN

STATION/POSITION TIME  TEMP    WIND        PRES    WAVE
                       AIR SEA DIR/SP/G            HT/PER
                 (UTC) (F)     (DEG/KT/KT) (MB)    (FT/S)
NORTHPORT PIER   1413   15     350/ 21/ 25 1023.4R
SISTER BAY       1417   18     360/ 18/ 23   N/A
KEWAUNEE LAKESHO 1400   20     350/ 11/ 17 1021.7R
SHEBOYGAN LAKESH 1500   20     350/ 19/ 21 1023.9R
PORT WASHINGTON  1400   22     360/  7/ 15 1023.0S
MILWAUKEE LAKESH 1400   22     350/ 11/ 16   N/A
KENOSHA   LAKESH 1500   21     350/ 19/ 24 1021.7S
$$

TC  - TEMPERATURE IN CELSIUS
VSB - VISIBILITY IN STATUTE MILES
WCI - WIND CHILL INDEX
HX  - HEAT INDEX




USA.gov is the U.S. government's official web portal to all federal, state and local government web resources and services.